Preview of NWS' New Version of Forecast
This preview is not operational and should not be used for support decisions.

Regional Weather Roundup (RWR)

Issued by National Weather Service (NWS)

                            
000
ASUS45 KBOU 181810
RWRCO 

WEATHER ROUNDUP FOR COLORADO
NATIONAL WEATHER SERVICE DENVER/BOULDER CO
1200 PM MDT TUE JUN 18 2019

NOTE: "FAIR" INDICATES FEW OR NO CLOUDS BELOW 12000 FEET WITH NO
SIGNIFICANT WEATHER AND/OR OBSTRUCTIONS TO VISIBILITY.

COZ001>005-013-030-031-181900-
...NORTHWEST COLORADO...
  
CITY           SKY/WX    TMP DP  RH WIND       PRES   REMARKS
CRAIG          FAIR      67  49  52 W8        30.15F                  
HAYDEN         PTSUNNY   59  48  67 W5        30.18F                  
MEEKER         FAIR      62  50  64 SE7       30.17F                  
RANGELY        FAIR      69  49  48 SW6       30.13F                  
RABBIT EARS PA NOT AVBL                                               
STEAMBOAT SPGS CLOUDY    55  49  80 CALM      30.20S                  
WALDEN         PTSUNNY   54  43  66 SW6       30.24F                  
$$

COZ006>008-011-181900-
...WEST CENTRAL VALLEYS...
  
CITY           SKY/WX    TMP DP  RH WIND       PRES   REMARKS
GRAND JUNCTION CLOUDY    62  54  74 S6        30.15F                  
MONTROSE       PTSUNNY   64  46  52 N7        30.18F                  
EAGLE          CLOUDY    59  49  69 N3        30.22F                  
RIFLE          CLOUDY    60  53  77 NE5       30.17F                  
DELTA          PTSUNNY   68  48  48 CALM      30.16S THUNDER          
NUCLA          FAIR      68  45  42 W3        30.21S                  
$$

COZ017>023-064>068-181900-
...SOUTHWEST COLORADO...
  
CITY           SKY/WX    TMP DP  RH WIND       PRES   REMARKS
DURANGO        FAIR      73  41  31 W9G18     30.19F                  
CORTEZ         FAIR      74  44  34 VRB3      30.16F                  
PAGOSA SPRINGS FAIR      69  38  31 S17G24    30.24F THUNDER          
TELLURIDE      CLOUDY    57  39  51 SW10G16   30.34S                  
WOLF CREEK PAS TSTM      41  36  81 SW17      30.53S                  
$$

COZ009-010-012-014-032>034-037-058>063-181900-
...CENTRAL COLORADO...
  
CITY           SKY/WX    TMP DP  RH WIND       PRES   REMARKS
ASPEN          CLOUDY    59  43  55 NW5       30.24S                  
BUENA VISTA    CLOUDY    66  33  29 SW16G25   30.19F                  
COPPER MTN     CLOUDY    37  36  93 W8        30.44S VSB<1/4          
BERTHOUD PASS  CLOUDY    34  25  69 NW17G23   30.44R WCI  23          
COTTONWOOD PAS NOT AVBL                                               
GUNNISON       PTSUNNY   61  45  55 VRB7      30.25F THUNDER          
GRANBY         CLOUDY    52  45  77 SW6       30.26S                  
KREMMLING      NOT AVBL                                               
LEADVILLE      CLOUDY    50  36  58 N14G22    30.32S                  
MONARCH PASS   CLOUDY    43  34  70 MISG      30.54F                  
SALIDA         PTSUNNY   68  36  31 W21G31    30.27S                  
SUNLIGHT       CLOUDY    41  39  93 SW9       30.42S VSB 1/4          
WILKERSON PASS FAIR      50  36  57 W6        30.41S                  
$$

COZ069>075-181900-
...SAN LUIS VALLEY/SANGRE DE CRISTO MOUNTAINS...
  
CITY           SKY/WX    TMP DP  RH WIND       PRES   REMARKS
ALAMOSA        FAIR      64  43  46 CALM      30.22F                  
DEL NORTE      PTSUNNY   61  46  57 E8        30.24S                  
LA VETA PASS   NOT AVBL                                               
SAGUACHE       PTSUNNY   63  43  48 CALM      30.23R                  
$$

COZ035-036-038>040-181900-
...NORTHERN COLORADO FRONT RANGE...
  
CITY           SKY/WX    TMP DP  RH WIND       PRES   REMARKS
DENVER INTL AP PTSUNNY   68  53  58 N5        30.09F                  
AURORA         NOT AVBL                                               
FRONT RANGE AP LGT RAIN  64  55  72 N5        30.10F                  
ERIE MUNI ARPT PTSUNNY   66  52  60 CALM      30.14F                  
BOULDER MUN AP CLOUDY    64  52  63 CALM      30.10S                  
CENTENNIAL     TSTM      61  53  75 NW9       30.13S                  
BROOMFIELD     LGT RAIN  63  54  72 S5        30.13S                  
FORT COLLINS   LGT RAIN  65  53  65 SW5       30.09                   
LONGMONT       CLOUDY    70  52  53 SW5       30.10F                  
$$

COZ041-046-047-076>085-087-088-181900-
...PIKES PEAK/PALMER DIVIDE AND SOUTHERN FOOTHILLS...
  
CITY           SKY/WX    TMP DP  RH WIND       PRES   REMARKS
COLO. SPRINGS  PTSUNNY   66  52  60 S9        30.13F                  
A. F. ACADEMY  TSTM      64  50  59 NW17      30.14R                  
SCHRIEVER AFB  NOT AVBL                                               
CHEYENNE MTN   NOT AVBL                                               
ELLICOTT         N/A    N/A N/A N/A SE12      30.11F                  
FALCON         PTSUNNY   66  49  53 SE7G20    30.17S                  
FORT CARSON    LGT RAIN  66  52  59 SE8       30.09F                  
LIMON          CLOUDY    64  52  64 N12G20    30.09F                  
MONUMENT HILL  CLOUDY    57  50  77 W8        30.19F THUNDER          
CANON CITY     FAIR      73  50  43 SE7       30.06F                  
WALSENBURG     NOT AVBL                                               
TRINIDAD       FAIR      74  50  42 VRB6      30.10F                  
$$

COZ042>045-048>051-090-091-181900-
...NORTHEAST COLORADO...
  
CITY           SKY/WX    TMP DP  RH WIND       PRES   REMARKS
GREELEY ARPT   PTSUNNY   72  55  56 SE8       30.07F                  
AKRON          PTSUNNY   61  58  90 E7        30.08F                  
BURLINGTON     CLOUDY    67  59  75 NE10      30.05F                  
WRAY           CLOUDY    63  59  88 NE8       30.05F                  
YUMA           CLOUDY    57  48  72 NE8       30.07S HAZE             
STERLING       CLOUDY    64  57  77 NE6       30.05F                  
HOLYOKE        RAIN      63  59  88 NE6       30.06S                  
FORT MORGAN      N/A     67  54  64 SE6       30.08S                  
$$

COZ086-089-092>099-181900-
...SOUTHEAST COLORADO...
  
CITY           SKY/WX    TMP DP  RH WIND       PRES   REMARKS
PUEBLO         PTSUNNY   72  58  61 E9        30.05F                  
LA JUNTA       FAIR      73  56  54 MISG      30.05F                  
LAMAR          FAIR      71  58  63 VRB5      30.02S                  
SPRINGFIELD      N/A     72  60  66 N13       30.03F                  
$$